FW5402 Weather Reports


Display with metric or nautical units.
time (UTC)temp
F
wind
direction
speed
MPH
gust
MPH
rain 1hr
in
rain 24hr
in
rain mn
in
humidity
%
barometer
mb
20260505023030 71 0 0.0 1.0 0.00 0.00 0.00 62 1008.4
20260505021528 71 0 0.0 1.0 0.00 0.00 0.00 61 1008.3
20260505020033 71 0 0.0 1.0 0.00 0.00 0.00 61 1008.2
20260505014535 71 167 0.0 1.0 0.00 0.00 0.00 60 1008.1
20260505013029 72 0 0.0 1.0 0.00 0.00 0.00 60 1008.0
20260505011533 72 0 0.0 1.0 0.00 0.00 0.00 59 1007.9
20260505010030 73 181 0.0 1.0 0.00 0.00 0.00 58 1007.9
20260505004542 74 0 0.0 1.0 0.00 0.00 0.00 56 1007.9
20260505003029 75 198 0.0 1.0 0.00 0.00 0.00 55 1007.8
20260505001526 76 0 0.0 1.0 0.00 0.00 0.00 53 1007.9
20260505000041 77 0 0.0 2.0 0.00 0.00 0.00 52 1007.8
20260504234528 77 203 1.0 3.0 0.00 0.00 0.00 50 1007.7
20260504233028 78 209 1.0 4.0 0.00 0.00 0.00 50 1008.1
20260504231531 79 250 1.0 4.0 0.00 0.00 0.00 48 1008.3
20260504230028 80 195 0.0 2.0 0.00 0.00 0.00 48 1008.5
20260504224527 81 203 1.0 4.0 0.00 0.00 0.00 47 1008.7
20260504223030 82 206 1.0 4.0 0.00 0.00 0.00 44 1008.6
20260504221528 83 245 0.0 3.0 0.00 0.00 0.00 45 1008.8
20260504220028 83 200 1.0 4.0 0.00 0.00 0.00 45 1009.0
20260504214529 83 0 1.0 3.0 0.00 0.00 0.00 43 1009.1
20260504213028 84 209 1.0 4.0 0.00 0.00 0.00 43 1009.2
20260504211527 84 193 1.0 3.0 0.00 0.00 0.00 42 1009.3
20260504210030 85 201 2.0 6.0 0.00 0.00 0.00 43 1009.8
20260504204527 85 210 1.0 4.0 0.00 0.00 0.00 43 1010.0
20260504203031 84 224 1.0 4.0 0.00 0.00 0.00 44 1010.0
20260504201529 85 281 1.0 6.0 0.00 0.00 0.00 42 1010.3
20260504200030 85 184 2.0 3.0 0.00 0.00 0.00 41 1010.7
20260504194527 84 192 1.0 3.0 0.00 0.00 0.00 42 1010.8
20260504193028 83 205 1.0 4.0 0.00 0.00 0.00 45 1011.0
20260504191527 84 239 2.0 4.0 0.00 0.00 0.00 43 1011.3
20260504190030 83 240 1.0 4.0 0.00 0.00 0.00 44 1011.6
20260504184530 83 223 2.0 4.0 0.00 0.00 0.00 42 1011.6
20260504183029 83 242 1.0 5.0 0.00 0.00 0.00 44 1011.7
20260504181532 82 270 2.0 5.0 0.00 0.00 0.00 44 1011.8
20260504180029 82 242 1.0 3.0 0.00 0.00 0.00 47 1011.9
20260504174530 81 245 1.0 4.0 0.00 0.00 0.00 44 1012.3
20260504173029 80 195 2.0 5.0 0.00 0.00 0.00 44 1012.8
20260504171528 80 257 3.0 6.0 0.00 0.00 0.00 44 1012.8
20260504081530 62 0 0.0 0.0 0.00 0.00 0.00 72 1013.8
20260504044532 69 190 0.0 2.0 0.00 0.00 0.00 59 1014.6
20260504043029 70 217 0.0 2.0 0.00 0.00 0.00 58 1014.3
20260504041529 70 187 0.0 2.0 0.00 0.00 0.00 58 1014.6
20260504040030 70 210 1.0 4.0 0.00 0.00 0.00 58 1014.7
20260504034529 70 236 0.0 2.0 0.00 0.00 0.00 59 1014.8
20260504033027 70 205 0.0 2.0 0.00 0.00 0.00 59 1014.9
20260504031530 70 0 0.0 2.0 0.00 0.00 0.00 59 1014.8
20260504030029 70 0 0.0 1.0 0.00 0.00 0.00 60 1014.9
20260504024528 69 0 0.0 1.0 0.00 0.00 0.00 59 1014.8